Regional Weather Roundup
Issued by NWS Wakefield, VA

Home | Current Version | Previous Version | Text Only | Print | Product List | Glossary On
Versions: 1 2 3 4 5 6 7 8 9 10 11 12 13 14 15 16 17 18 19 20 21 22 23 24 25 26 27
000
ASUS41 KAKQ 032015
RWRAKQ

REGIONAL WEATHER ROUNDUP
NATIONAL WEATHER SERVICE WAKEFIELD VA
300 PM EST SAT DEC 03 2016

Note: "fair" indicates few or no clouds below 12,000 feet with no
significant weather and/or obstructions to visibility. * = Denotes
station may not report precipitation (e.g., rain,snow,etc.),
thunder or fog.

VAZ042-051-052>054-056-032100-
NORTHERN VIRGINIA

CITY           SKY/WX    TMP DP  RH WIND       PRES   REMARKS
WASH NATIONAL  MOSUNNY   49  29  46 NW16G23   30.22R
DULLES         MOSUNNY   46  28  49 N15       30.22R
FORT BELVOIR   MOSUNNY   49  28  44 NW12      30.22R
QUANTICO       SUNNY     50  27  40 N16G24    30.23R
FREDERICKSBRG* SUNNY     52  32  46 NW6       30.22R
STAFFORD*      SUNNY     49  30  47 NW14      30.26R
WARRENTON      SUNNY     52  22  31 W9        30.22R
CULPEPER*      SUNNY     52  30  43 N8        30.23R
MANASSAS*      MOSUNNY   48  28  46 N12G17    30.23R
LEESBURG*      CLOUDY    46  32  57 NW21G26   30.24R
WINCHESTER     PTSUNNY   41  28  60 NW14      30.25R
FRONT ROYAL*   FAIR      45  30  57 NW8       30.23R
LURAY*         FAIR      46  32  57 N6        30.23R
$$

VAZ048-049-060>072-079>083-032100-
CENTRAL AND SOUTH CENTRAL VIRGINIA

CITY           SKY/WX    TMP DP  RH WIND       PRES   REMARKS
RICHMOND       MOSUNNY   51  28  41 NW9       30.21R
CHESTERFIELD*  FAIR      52  21  30 NW8       30.23R
PETERSBURG*    PTSUNNY   49  28  44 NW7       30.23R
HANOVER        SUNNY     51  28  41 W8        30.23R
TAPPAHANNOCK*  SUNNY     51  23  34 NW7       30.21R
QUINTON*       FAIR      51  31  45 NW7       30.20R
CHARLOTTSVILLE SUNNY     51  28  41 VRB3      30.22R
GORDONSVILLE*  FAIR      51  29  43 NW5       30.22R
ORANGE*          N/A     52  30  43 CALM      30.24R
LOUISA*        SUNNY     55  34  44 W5        30.21R
BUMPASS*       FAIR      50  29  44 NW5       30.22R
FARMVILLE*     SUNNY     49  31  49 SW3       30.22R
CREWE*         FAIR      48  29  47 NW6       30.23R
FORT PICKETT*  FAIR      48  21  33 W6        30.23R
CHASE CITY*    FAIR      48  26  41 W6        30.24R
CLARKSVILLE*   FAIR      50  30  46 NW3       30.24R
SOUTH HILL*    CLOUDY    49  30  49 CALM      30.29R
LAWRENCEVILLE* FAIR      49  28  42 NW6       30.23R
EMPORIA*       MOSUNNY   50  30  46 NW7       30.24R
$$

VAZ088>098-032100-
SOUTHEAST VIRGINIA

CITY           SKY/WX    TMP DP  RH WIND       PRES   REMARKS
NORFOLK        CLOUDY    50  31  48 W5        30.19R
VIRGINIA BEACH PTSUNNY   51  30  44 N13       30.17S
NORFOLK NAVAL  PTSUNNY   51  30  44 W13       30.21R
WEST POINT*    SUNNY     51  27  39 NW9       30.22R
SALUDA*        FAIR      50  32  50 NW7       30.18R
NEWPORT NEWS   SUNNY     50  29  44 W8        30.20R
LANGLEY AFB    SUNNY     50  29  45 NW8       30.19R
FORT EUSTIS    SUNNY     49  31  48 W10       30.18R
WILLIAMSBURG*  SUNNY     55  32  41 NW6       30.21R
HR EXEC AP*    FAIR      52  30  43 NW8       30.19R
FRANKLIN*      MOSUNNY   51  29  43 NW8       30.22R
US460-WAKEFLD  MOSUNNY   51  29  42 W7        30.21R
$$

VAZ020-022-025-037-045-032100-
WEST CENTRAL AND SOUTHWEST VIRGINIA

CITY           SKY/WX    TMP DP  RH WIND       PRES   REMARKS
STAUNTON*      SUNNY     45  29  52 NW5       30.24R
WAYNESBORO*    FAIR      45  26  47 CALM      30.22R
HOT SPRINGS VA NOT AVBL
LYNCHBURG      PTSUNNY   46  27  47 W3        30.25R
DANVILLE       MOSUNNY   50  27  40 W7        30.25R
SOUTH BOSTON*  FAIR      51  26  38 NW5       30.25R
MARTINSVILLE   MOSUNNY   47  26  43 CALM      30.27S
ROANOKE        CLOUDY    44  26  49 NW12      30.27R
BLACKSBURG     MOSUNNY   38  27  64 W5        30.27S
DUBLIN*        CLOUDY    40  28  61 NW8       30.26S
MARION*        CLOUDY    38  28  69 W13       30.26F
HILLSVILLE*    CLOUDY    37  28  69 NW7       30.20F
RICHLANDS*     MOCLDY    35  28  76 CALM      30.25F
WISE*          CLOUDY    36  28  75 CALM      30.25F
ABINGDON*      CLOUDY    41  28  60 N3        30.26F
$$

MDZ021>025-VAZ099-100-032100-
SOUTHERN MARYLAND AND THE DELMARVA PENINSULA

CITY           SKY/WX    TMP DP  RH WIND       PRES   REMARKS
PATUXENT RIVER MOSUNNY   50  28  42 NW17      30.18R
BAY BRIDGE APT MOSUNNY   50  32  50 NW10G22   30.18R
LEONARDTOWN    SUNNY     50  30  46 W14G20    30.19R
DOVER          MOSUNNY   51  33  50 NW22      30.10R
GEORGETOWN     MOSUNNY   52  29  41 NW9G25    30.13R
EASTON         SUNNY     50  28  43 NW18      30.20R
CAMBRIDGE      SUNNY     48  30  49 NW15G23   30.15R
SALISBURY      MOSUNNY   50  30  46 NW18G25   30.13R
OCEAN CITY     SUNNY     51  29  42 NW17G25   30.12R
WALLOPS ISLAND SUNNY     51  31  46 NW15      30.14R
ACCOMACK*      SUNNY     50  32  50 NW14G26   30.16R
$$

NCZ012>017-030>032-032100-
NORTH CENTRAL AND EASTERN NORTH CAROLINA

CITY           SKY/WX    TMP DP  RH WIND       PRES   REMARKS
ROANOKE RAPIDS FAIR      52  30  43 CALM      30.22R
RALEIGH        PTSUNNY   53  26  35 NW6       30.24R
ELIZABETH CITY SUNNY     53  29  39 NW9       30.19R
AHOSKIE*       SUNNY     50  28  43 CALM      30.22R
EDENTON*       SUNNY     53  31  42 CALM      30.20R
CURRITUCK*     SUNNY     52  29  40 N8        30.19R
KILL DEVIL HLS SUNNY     50  35  56 NW5       30.17R
MANTEO         SUNNY     51  31  47 N7        30.18S
CAPE HATTERAS  SUNNY     54  35  48 VRB5      30.18S
TARBORO*       NOT AVBL
GOLDSBORO      MOSUNNY   53  27  36 NW8       30.20R
WASHINGTON     CLOUDY    53  29  39 N7        30.21R
GREENVILLE     CLOUDY    52  30  43 NW3       30.22R
NEW BERN       SUNNY     53  31  42 NW6       30.21R
WILMINGTON     CLOUDY    53  30  41 NW6       30.23R
$$

VAZ048-032100-
ELSEWHERE

CITY           SKY/WX    TMP DP  RH WIND       PRES   REMARKS
HARRISBURG PA  PTSUNNY   47  31  53 NW20G25   30.15R
BALTIMORE      PTSUNNY   49  30  48 NW18G26   30.18R
ANNAPOLIS      MOSUNNY   50  31  48 NW15G23   30.18R
ANDREWS AFB    SUNNY     47  29  48 NW16      30.19R
PHILADELPHIA   PTSUNNY   51  29  42 NW18G25   30.11R
HENDERSON NC   MOSUNNY   49  25  39 N3        30.24R
GREENSBORO     CLOUDY    49  28  44 NW7       30.22S
ROCKY MOUNT    MOSUNNY   52  28  39 NW5       30.23R
$$

VAZ100-032100-
MARINE

STATION/POSITION TIME  TEMP    WIND        PRES    WAVE   SWELL
                       AIR SEA DIR/SP/G            HT/PER HT/PER
                 (UTC) (F)     (DEG/KT/KT) (MB)    (FT/S) (FT/S)
BRANDYWINE LGT   1948   48     340/ 19/ 23   N/A
CAPE MAY NJ      1948   48 47  320/ 19/ 24 1018.5R
LEWES DE         1948   50 49  320/ 19/ 22 1019.3R
OCEAN-CITY-INLET 1948   51 51  350/ 15/ 20 1020.1R
WACHAPREAGUE VA  1948   49 50  300/  7/ 16 1021.1R
THOMAS POINT MD  2000   48 50  320/ 20/ 25   N/A
GOOSES REEF MD   2000   49 50  350/ 16/ 19 1022.5    2/ 3
COVE POINT MD    1948   48     360/ 17/ 22 1022.2R
SOLOMONS ISLAND  1948   49 52  310/  8/ 14   N/A
BISHOPS HEAD MD  1948   49 46  310/ 17/ 21 1021.6R
PINEY POINT MD   1948          320/ 20/ 24   N/A
POTOMAC MD       2000   49 51  300/ 17/ 21 1021.4    2/ 3
CAMBRIDGE MD     1948   49 48  290/ 11/ 16 1020.5R
LEWISETTA VA     1948   48 51  320/ 13/ 18 1021.9R
RAPPAHANNOCK LGT 1948          310/ 16/ 18 1022.1R
STINGRAY PT      2000   50     330/ 14/ 17 1022.3    1/ 2
YORK RVR RNG VA  1948   50     340/ 11/ 13 1021.7R
YORKTOWN VA      1948   50 53  300/ 10/ 13 1022.0R
JAMESTOWN VA     2000   50 53  290/  8/ 10   N/A     0
DOMINION TERM VA 1948   50     310/ 12/ 15 1022.2R
KIPTOPEKE VA     1948      52                N/A
CHES BAY BRIDGE  1948   49 53  330/ 10/ 13 1022.0R
CAPE HENRY VA    1948   48     310/ 11/ 14   N/A
WILLOUBY STN VA  1948   49     290/ 14/ 15 1023.0R
S CRANEY ISL VA  1948   50     300/  7/ 12 1021.9R
CAPE HENRY BUOY  1942      56                N/A     3/ 5
1ST LANDING BUOY 2000   49 53              1022.5    2/ 3
CAPE CHARLES BUO 1956      56                N/A     3/ 4
OFFSHORE WE BUOY 1951      57                N/A     4/ 4
64NM E OF VA BCH 1950   50 60  330/ 19/ 25 1019.9R   7/ 6   2/16
DUCK PIER NC     1948   49 56  310/ 10/ 13 1021.4R
44100 DUCK FRF   1935      57                N/A     5/ 5
OREGON INLET NC  1942   50 55  310/ 10/ 15 1021.6R
HATTERAS NC      1948   51 58  340/ 12/ 15 1021.6R
DIAMOND SHLS NC  1950   59 74  360/ 16/ 19 1021.6S   5/ 8   3/ 8
CAPE LOOKOUT NC  2000   51     340/  8/ 10 1022.5R
$$




USA.gov is the U.S. government's official web portal to all federal, state and local government web resources and services.